Saltar para o conteúdo principal

Faial / Cabeço Verde (DROTRH)

ID 11217730 · 38.5843, -28.7576 mapa

Última leitura · 2026-05-09 18:00 (Europe/Lisbon)

Temperatura
10.2 °C
Humidade
99 %
Pressão
Precipitação
0.1 mm
Radiação
873 W/m²
Velocidade do vento
20.9 km/h
Direcção do vento
E · Este

Histórico de 24 horas

Hora (Europe/Lisbon) Temperatura Humidade Pressão Chuva Vento Direcção
2026-05-09 18:00 10.2 °C 99 % 0.1 mm 20.9 km/h E
2026-05-09 17:00 10.0 °C 99 % 0.0 mm 22.7 km/h E
2026-05-09 16:00 10.2 °C 93 % 0.0 mm 21.2 km/h E
2026-05-09 15:00 9.9 °C 90 % 0.0 mm 19.1 km/h E
2026-05-09 14:00 10.0 °C 82 % 0.0 mm 21.6 km/h SE
2026-05-09 13:00 9.8 °C 77 % 0.0 mm 17.6 km/h SE
2026-05-09 12:00 9.1 °C 75 % 0.0 mm 22.0 km/h SE
2026-05-09 11:00 8.7 °C 75 % 0.0 mm 18.7 km/h E
2026-05-09 10:00 8.4 °C 80 % 0.0 mm 17.6 km/h E
2026-05-09 09:00 7.9 °C 92 % 0.1 mm 19.4 km/h SE
2026-05-09 08:00 7.4 °C 99 % 0.4 mm 17.6 km/h E
2026-05-09 07:00 8.3 °C 94 % 1.1 mm 17.3 km/h E
2026-05-09 06:00 8.6 °C 91 % 0.0 mm 15.5 km/h E
2026-05-09 05:00 8.9 °C 84 % 0.0 mm 20.2 km/h E
2026-05-09 04:00 8.4 °C 75 % 0.0 mm 18.4 km/h S
2026-05-09 03:00 8.6 °C 80 % 0.0 mm 18.0 km/h E
2026-05-09 02:00 9.2 °C 84 % 0.1 mm 20.2 km/h SE
2026-05-09 01:00 9.2 °C 96 % 0.0 mm 19.8 km/h N
2026-05-09 00:00 10.0 °C 94 % 0.1 mm 22.0 km/h NE
2026-05-08 23:00 10.1 °C 95 % 0.0 mm 20.9 km/h NE
2026-05-08 22:00 10.5 °C 97 % 0.0 mm 21.2 km/h SE
2026-05-08 21:00 10.9 °C 99 % 0.0 mm 18.7 km/h SE
2026-05-08 20:00 11.1 °C 99 % 0.0 mm 20.2 km/h SE